Location: Hokitika
(42.7170°S, 170.9670°E)
Time: 22:46:04
(UTC+13:00)

Cosmos 2181 Rocket - Pass Details

Date: 24 January 2019
Orbit: 952 x 1015 km, 82.9° (Epoch: 17 February)

Event Time Altitude Azimuth Distance (km) Brightness Sun altitude
Rises 23:29:12 0° 183° (S) 3,674 8.0 -20.3°
Reaches altitude 10° 23:31:49 10° 177° (S) 2,727 7.1 -20.6°
Maximum altitude 23:37:50 48° 103° (ESE) 1,254 4.4 -21.2°
Enters shadow 23:39:47 37° 57° (ENE) 1,479 4.5 -21.4°
